Location: Praha
(50.0830°N, 14.4670°E)
Time: 15:15:34
(UTC+02:00)

ISS - Pass Details

Date: 07 October 2019
Orbit: 411 x 421 km, 51.6° (Epoch: 18 October)

Event Time Altitude Azimuth Distance (km) Brightness Sun altitude
Rises 18:55:16 0° 287° (WNW) 2,349 1.7 -5.1°
Reaches altitude 10° 18:57:23 10° 283° (WNW) 1,484 0.6 -5.5°
Maximum altitude 19:00:38 51° 206° (SSW) 525 -3.0 -6.0°
Drops below altitude 10° 19:03:51 10° 129° (SE) 1,476 -1.4 -6.5°
Enters shadow 19:05:02 - 126° (SE) 1,958 -0.8 -6.7°
